{"data":{"norad_id":64215,"intl_designator":"2025-117N","name":"STARLINK-34349","alt_names":[],"object_type":"PAYLOAD","status":"ACTIVE","operator":null,"country":"US","launch_date":"2025-05-31","launch_site_code":"AFWTR","launch_vehicle":null,"mission":null,"orbit_class":"UNKNOWN","rcs_meters":null,"size_class":null,"mass_kg":null,"dimensions":null,"purposes":["comms"],"wikipedia_slug":null,"has_3d_model":false,"image_url":null,"decayed_at":null,"tle_current":{"epoch":"2026-05-25T02:23:15.169632Z","epoch_age_seconds":63546,"freshness":"FRESH","line1":"1 64215U 25117N   26145.09948113  .00012368  00000+0  42886-3 0  9997","line2":"2 64215  53.1599  44.7349 0001065 112.1348 247.9766 15.30209906 56226","mean_motion":15.30209906,"eccentricity":0.0001065,"inclination_deg":53.1599,"raan_deg":44.7349,"arg_perigee_deg":112.1348,"mean_anomaly_deg":247.9766,"bstar":0.00042886,"rev_number":5622,"period_min":94.104736504039,"perigee_km":474.45561320305,"apogee_km":475.91537089386,"semimajor_km":6853.3224920485,"source":"CELESTRAK","updated_at":"2026-05-25T13:38:20.319496Z"}}}